SCP
0 0 0 0 0 0 0 0 0 0 0 0 0 0 0 0 0 0 0 0 0 0 0 0 0 0 0 0 0 0 0 0 0 0 0 0 0 0
0 0 0 0 0 0 0 0 0 0 0 0 0 0 0 0 0 0 0 0 0 0 0 0 0 0 0 0 0 0 0 0 -0 -0 0 0 0 0
0 0 0 0 0 0 0 0 0 0 0 0 0 0 0 0 0 0 0 0 0 0 0 0 0 0 0 0 0 0 -0 -0 0 -0 0 0 0 0
0 0 0 0 0 0 0 0 0 0 0 0 0 0 0 0 0 0 0 0 0 0 0 0 0 0 0 0 0 0 0 0 0 0 0 0 0 0
0 0 0 0 0 0 0 0 0 0 0 0 0 0 0 0 0 0 0 0 0 0 0 0 0 0 0 0 0 0 0 0 0 0 0 0 0 0
0 0 0 0 0 0 0 0 0 0 0 0 0 0 0 0 0 0 0 0 0 0 0 0 0 0 0 0 0 0 0 0 0 0 0 0 0 0
0 0 0 0 0 0 0 0 0 0 0 0 0 0 0 0 0 0 0 0 0 0 0 0 0 0 0 0 0 0 0 0 0 0 0 0 0 0
0 0 0 0 0 0 0 0 0 0 0 0 0 0 0 0 0 0 0 0 0 0 0 0 0 0 0 0 0 0 0 0 0 0 0 0 0 0
0 0 0 0 0 0 0 0 0 0 0 0 0 0 0 0 0 0 0 0 0 0 0 0 0 0 0 0 0 0 0 0 0 0 0 0 0 0
0 0 0 0 0 0 0 0 0 0 0 0 0 0 0 0 0 0 0 0 0 0 0 0 0 0 0 0 0 0 0 0 0 0 0 0 0 0
0 0 0 0 0 0 0 0 0 0 0 0 0 0 0 0 0 0 0 0 0 0 0 0 0 0 0 0 0 0 0 0 0 0 0 0 0 0
0 0 0 0 0 0 0 0 0 0 0 0 0 0 0 0 0 0 0 0 0 0 0 0 0 0 0 0 0 0 0 0 0 0 0 0 0 0
0 0 0 0 0 0 0 0 0 0 0 0 0 0 0 0 0 0 0 0 0 0 0 0 0 0 0 0 0 0 0 0 0 0 0 0 0 0
0 0 0 0 0 0 0 0 0 0 0 0 0 0 0 0 0 0 0 0 0 0 0 0 0 0 0 0 0 0 0 0 0 0 0 0 0 0
0 0 0 0 0 0 0 0 0 0 0 0 0 0 0 0 0 0 0 0 0 0 0 0 0 0 0 0 0 0 0 0 0 0 0 0 0 0
0 0 0 0 0 0 0 0 0 0 0 0 0 0 0 0 0 0 0 0 0 0 0 0 0 0 0 0 0 0 0 0 0 0 0 0 0 0
0 0 0 0 0 0 0 0 0 0 0 0 0 0 0 0 0 0 0 0 0 0 0 0 0 0 0 0 0 0 0 0 0 0 0 0 0 0
0 0 0 0 0 0 0 0 0 0 0 0 0 0 0 0 0 0 0 0 0 0 0 0 0 0 0 0 0 0 0 0 0 0 0 0 0 0
0 0 0 0 0 0 0 0 0 0 0 0 0 0 0 0 0 0 0 0 0 0 0 0 0 0 0 0 0 0 0 0 0 0 0 0 0 0
0 0 0 0 0 0 0 0 0 0 0 0 0 0 0 0 0 0 0 0 0 0 0 0 0 0 0 0 0 0 0 0 0 0 0 0 0 0
0 0 0 0 0 0 0 0 0 0 0 0 0 0 0 0 0 0 0 0 0 0 0 0 0 0 0 0 0 0 0 0 0 0 0 0 0 0
0 0 0 0 0 0 0 0 0 0 0 0 0 0 0 0 0 0 0 0 0 0 0 0 0 0 0 0 0 0 0 0 0 0 0 0 0 0
0 0 0 0 0 0 0 0 0 0 0 0 0 0 0 0 0 0 0 0 0 0 0 0 0 0 0 0 0 0 0 0 0 0 0 0 0 0
Wind_Speed_500mb
34 36 39 37 37 37 41 44 44 47 45 39 34 31 29 28 19 17 17 15 10 8 8 7 7 7 8 7 8 10 15 19 24 32 45 34 26 21
30 33 35 34 35 35 37 39 41 45 46 36 26 25 22 20 23 18 16 14 6 6 5 5 6 7 8 10 11 11 13 18 28 44 31 25 21 15
35 32 29 29 30 33 34 36 42 44 47 45 40 30 25 24 28 22 18 13 9 6 4 6 7 9 10 12 13 15 16 20 37 29 24 17 16 12
22 23 24 27 28 30 35 39 42 44 49 47 45 35 31 27 33 25 19 14 12 9 8 9 10 11 11 12 14 16 19 27 25 23 17 14 15 12
20 20 20 23 24 27 30 35 38 41 45 47 45 40 29 33 31 28 20 14 14 12 10 10 10 15 14 12 13 18 21 23 25 33 22 16 14 14
19 20 21 22 24 24 27 30 30 32 34 39 41 33 30 30 31 30 24 20 17 13 13 13 14 14 15 14 15 19 24 31 24 13 11 13 13 16
22 21 21 21 24 25 22 19 18 17 21 28 34 36 38 39 36 37 29 21 20 19 17 19 17 16 14 16 19 22 21 16 13 10 10 13 16 17
20 20 18 16 19 20 19 16 14 13 11 13 24 30 33 38 38 39 30 25 22 18 20 20 19 19 20 21 20 20 20 19 17 16 17 19 19 20
22 19 17 16 12 14 17 19 17 15 10 10 15 20 26 30 32 35 29 27 21 11 17 20 18 19 21 22 21 21 22 23 23 22 21 20 19 19
22 21 20 19 18 14 14 17 19 19 15 9 8 7 12 19 24 24 23 22 19 16 12 12 15 19 24 27 24 22 22 22 21 20 19 19 18 18
26 25 22 20 19 18 14 15 17 15 15 17 17 18 15 15 20 30 33 30 31 24 26 22 21 20 24 28 27 23 21 20 20 20 19 18 17 19
37 33 29 24 23 22 16 16 15 11 11 15 17 12 12 17 20 22 26 33 35 33 31 30 24 20 19 27 29 29 28 25 23 23 22 22 21 22
44 37 35 30 26 27 21 20 17 18 14 14 16 13 12 15 16 11 15 24 27 28 21 18 19 24 29 22 13 32 33 28 29 31 30 29 28 28
50 40 37 36 33 33 29 26 24 26 26 21 19 16 10 9 10 10 9 8 18 22 26 26 28 24 21 30 32 31 33 33 29 30 32 33 37 38
53 48 45 45 41 38 38 35 34 34 36 31 27 23 16 15 16 15 12 12 12 14 16 31 32 29 30 33 38 37 30 35 40 44 41 45 46 48
57 54 50 47 42 37 34 43 43 40 39 35 30 27 28 29 28 25 26 25 26 26 25 26 27 32 38 42 45 47 45 47 45 41 42 51 47 50
58 58 52 51 47 49 46 45 44 52 48 42 39 38 36 34 34 34 30 29 32 32 29 29 36 38 39 40 43 43 50 52 48 44 42 43 44 43
48 52 59 51 45 50 51 49 47 43 51 45 44 43 39 32 29 31 32 32 37 37 38 38 32 30 38 42 40 42 43 45 44 39 44 51 52 48
41 41 45 44 58 54 53 57 57 52 51 45 43 35 20 17 26 26 21 27 26 27 26 29 29 26 25 31 35 35 34 39 43 48 47 50 56 56
48 47 57 60 60 68 45 33 33 29 21 21 21 20 14 15 21 23 26 24 28 23 21 21 22 25 28 28 29 30 31 29 35 40 38 39 50 52
47 54 65 40 27 30 34 34 26 21 19 20 16 16 16 11 16 20 19 18 14 14 14 10 11 13 11 12 16 20 17 15 17 22 26 30 32 35
27 26 27 31 36 27 23 17 17 23 19 16 16 14 12 11 10 9 11 10 9 8 7 3 7 10 14 16 15 19 22 20 23 20 22 23 26 24
31 32 29 25 25 22 20 21 21 21 21 21 18 12 10 10 10 9 8 9 4 5 2 2 5 9 11 13 14 16 20 22 25 20 24 27 29 36
Wind_Direction_500mb
236 237 245 247 249 249 250 253 257 261 270 273 258 262 266 266 263 277 276 279 268 250 236 227 219 216 207 205 180 183 179 183 186 173 173 165 161 164
245 242 247 250 251 251 252 252 254 256 260 266 268 261 274 251 251 249 262 278 221 204 192 191 172 166 160 153 181 190 182 178 173 175 166 158 158 166
242 240 241 245 250 254 256 257 257 254 255 260 260 258 252 238 235 244 247 230 217 226 207 216 190 173 164 155 159 169 175 184 184 174 156 158 172 196
224 232 242 248 253 255 257 260 260 258 256 252 257 251 243 231 231 231 231 225 229 233 221 193 185 178 180 168 176 173 164 170 186 186 181 187 201 230
225 241 246 248 253 260 263 267 266 261 252 252 251 246 240 227 219 221 222 228 228 228 213 196 179 160 152 156 156 162 176 187 197 204 196 217 230 228
223 236 248 260 265 269 264 269 270 260 249 244 243 236 232 216 222 224 236 239 229 230 223 212 193 196 191 184 179 186 208 207 192 215 229 231 236 249
228 228 245 264 267 266 267 265 274 275 249 239 238 237 226 217 218 226 228 231 229 221 213 204 200 206 201 194 183 186 215 247 253 249 236 244 255 261
232 225 231 236 261 258 252 254 260 267 257 246 230 229 225 219 222 226 224 229 232 235 220 216 217 216 207 199 198 206 218 230 240 243 243 249 258 264
213 219 232 222 225 240 244 241 242 246 248 233 243 238 225 224 224 224 229 234 239 235 222 229 233 226 224 218 219 224 228 229 229 232 240 249 255 257
222 219 228 231 229 223 234 234 238 247 248 231 200 193 192 208 224 234 239 238 247 258 255 246 241 245 240 231 232 234 238 238 237 236 235 240 248 253
230 225 219 231 234 220 226 232 226 235 238 225 214 220 202 204 210 209 215 221 223 229 238 244 249 254 246 239 235 230 226 226 230 236 246 253 256 258
233 230 228 225 228 238 235 228 221 230 234 232 233 218 209 221 219 221 221 224 227 233 240 244 251 260 261 249 240 234 230 229 234 239 245 252 257 262
235 234 231 227 230 238 232 233 223 222 226 217 214 218 228 230 241 260 221 220 230 237 240 246 254 251 245 245 254 240 243 243 252 252 252 251 256 263
237 234 232 231 232 232 232 232 231 225 221 224 226 225 218 199 191 194 195 201 220 228 231 241 254 254 252 257 254 255 252 236 243 255 254 252 250 253
231 233 234 227 230 232 235 230 230 229 225 227 231 226 215 201 206 209 211 219 234 235 229 233 247 248 251 259 267 265 268 257 256 259 257 261 262 258
230 232 233 228 224 227 229 232 233 230 225 231 232 227 221 221 225 233 240 241 241 240 241 248 251 248 251 257 260 265 269 267 267 269 268 261 257 257
230 228 224 220 229 235 238 237 234 235 228 225 226 228 230 234 241 240 241 248 250 258 258 252 253 251 256 262 264 262 265 270 277 282 282 285 277 273
219 228 220 224 241 240 240 237 235 236 235 225 232 237 235 237 242 244 246 246 258 265 267 270 266 259 256 255 259 270 274 275 277 273 275 278 277 276
216 225 244 242 253 253 248 257 239 233 228 232 237 218 214 245 241 241 246 243 262 261 266 267 270 265 260 267 273 278 276 274 279 277 276 274 279 280
237 238 244 251 249 251 231 230 202 209 215 218 213 219 214 224 247 252 242 247 249 250 258 255 265 261 264 266 272 279 279 275 273 270 273 273 275 277
230 259 250 242 225 229 200 193 176 191 206 222 226 221 215 215 216 224 216 222 227 231 245 259 272 279 286 286 289 292 303 290 290 293 290 287 294 294
160 125 113 128 129 126 142 161 185 168 161 180 177 179 175 167 167 184 199 200 197 180 170 219 321 317 313 301 292 294 299 299 293 291 289 292 292 288
129 129 131 135 123 129 143 155 149 130 127 124 122 126 140 151 159 169 186 210 178 121 19 325 311 320 322 321 322 314 305 295 292 289 290 296 297 294
Wind_Speed_850mb
34 36 39 37 37 37 41 44 44 47 45 39 34 31 29 28 19 17 17 15 10 8 8 7 7 7 8 7 8 10 15 19 24 32 45 34 26 21
30 33 35 34 35 35 37 39 41 45 46 36 26 25 22 20 23 18 16 14 6 6 5 5 6 7 8 10 11 11 13 18 28 44 31 25 21 15
35 32 29 29 30 33 34 36 42 44 47 45 40 30 25 24 28 22 18 13 9 6 4 6 7 9 10 12 13 15 16 20 37 29 24 17 16 12
22 23 24 27 28 30 35 39 42 44 49 47 45 35 31 27 33 25 19 14 12 9 8 9 10 11 11 12 14 16 19 27 25 23 17 14 15 12
20 20 20 23 24 27 30 35 38 41 45 47 45 40 29 33 31 28 20 14 14 12 10 10 10 15 14 12 13 18 21 23 25 33 22 16 14 14
19 20 21 22 24 24 27 30 30 32 34 39 41 33 30 30 31 30 24 20 17 13 13 13 14 14 15 14 15 19 24 31 24 13 11 13 13 16
22 21 21 21 24 25 22 19 18 17 21 28 34 36 38 39 36 37 29 21 20 19 17 19 17 16 14 16 19 22 21 16 13 10 10 13 16 17
20 20 18 16 19 20 19 16 14 13 11 13 24 30 33 38 38 39 30 25 22 18 20 20 19 19 20 21 20 20 20 19 17 16 17 19 19 20
22 19 17 16 12 14 17 19 17 15 10 10 15 20 26 30 32 35 29 27 21 11 17 20 18 19 21 22 21 21 22 23 23 22 21 20 19 19
22 21 20 19 18 14 14 17 19 19 15 9 8 7 12 19 24 24 23 22 19 16 12 12 15 19 24 27 24 22 22 22 21 20 19 19 18 18
26 25 22 20 19 18 14 15 17 15 15 17 17 18 15 15 20 30 33 30 31 24 26 22 21 20 24 28 27 23 21 20 20 20 19 18 17 19
37 33 29 24 23 22 16 16 15 11 11 15 17 12 12 17 20 22 26 33 35 33 31 30 24 20 19 27 29 29 28 25 23 23 22 22 21 22
44 37 35 30 26 27 21 20 17 18 14 14 16 13 12 15 16 11 15 24 27 28 21 18 19 24 29 22 13 32 33 28 29 31 30 29 28 28
50 40 37 36 33 33 29 26 24 26 26 21 19 16 10 9 10 10 9 8 18 22 26 26 28 24 21 30 32 31 33 33 29 30 32 33 37 38
53 48 45 45 41 38 38 35 34 34 36 31 27 23 16 15 16 15 12 12 12 14 16 31 32 29 30 33 38 37 30 35 40 44 41 45 46 48
57 54 50 47 42 37 34 43 43 40 39 35 30 27 28 29 28 25 26 25 26 26 25 26 27 32 38 42 45 47 45 47 45 41 42 51 47 50
58 58 52 51 47 49 46 45 44 52 48 42 39 38 36 34 34 34 30 29 32 32 29 29 36 38 39 40 43 43 50 52 48 44 42 43 44 43
48 52 59 51 45 50 51 49 47 43 51 45 44 43 39 32 29 31 32 32 37 37 38 38 32 30 38 42 40 42 43 45 44 39 44 51 52 48
41 41 45 44 58 54 53 57 57 52 51 45 43 35 20 17 26 26 21 27 26 27 26 29 29 26 25 31 35 35 34 39 43 48 47 50 56 56
48 47 57 60 60 68 45 33 33 29 21 21 21 20 14 15 21 23 26 24 28 23 21 21 22 25 28 28 29 30 31 29 35 40 38 39 50 52
47 54 65 40 27 30 34 34 26 21 19 20 16 16 16 11 16 20 19 18 14 14 14 10 11 13 11 12 16 20 17 15 17 22 26 30 32 35
27 26 27 31 36 27 23 17 17 23 19 16 16 14 12 11 10 9 11 10 9 8 7 3 7 10 14 16 15 19 22 20 23 20 22 23 26 24
31 32 29 25 25 22 20 21 21 21 21 21 18 12 10 10 10 9 8 9 4 5 2 2 5 9 11 13 14 16 20 22 25 20 24 27 29 36
Wind_Direction_850mb
236 237 245 247 249 249 250 253 257 261 270 273 258 262 266 266 263 277 276 279 268 250 236 227 219 216 207 205 180 183 179 183 186 173 173 165 161 164
245 242 247 250 251 251 252 252 254 256 260 266 268 261 274 251 251 249 262 278 221 204 192 191 172 166 160 153 181 190 182 178 173 175 166 158 158 166
242 240 241 245 250 254 256 257 257 254 255 260 260 258 252 238 235 244 247 230 217 226 207 216 190 173 164 155 159 169 175 184 184 174 156 158 172 196
224 232 242 248 253 255 257 260 260 258 256 252 257 251 243 231 231 231 231 225 229 233 221 193 185 178 180 168 176 173 164 170 186 186 181 187 201 230
225 241 246 248 253 260 263 267 266 261 252 252 251 246 240 227 219 221 222 228 228 228 213 196 179 160 152 156 156 162 176 187 197 204 196 217 230 228
223 236 248 260 265 269 264 269 270 260 249 244 243 236 232 216 222 224 236 239 229 230 223 212 193 196 191 184 179 186 208 207 192 215 229 231 236 249
228 228 245 264 267 266 267 265 274 275 249 239 238 237 226 217 218 226 228 231 229 221 213 204 200 206 201 194 183 186 215 247 253 249 236 244 255 261
232 225 231 236 261 258 252 254 260 267 257 246 230 229 225 219 222 226 224 229 232 235 220 216 217 216 207 199 198 206 218 230 240 243 243 249 258 264
213 219 232 222 225 240 244 241 242 246 248 233 243 238 225 224 224 224 229 234 239 235 222 229 233 226 224 218 219 224 228 229 229 232 240 249 255 257
222 219 228 231 229 223 234 234 238 247 248 231 200 193 192 208 224 234 239 238 247 258 255 246 241 245 240 231 232 234 238 238 237 236 235 240 248 253
230 225 219 231 234 220 226 232 226 235 238 225 214 220 202 204 210 209 215 221 223 229 238 244 249 254 246 239 235 230 226 226 230 236 246 253 256 258
233 230 228 225 228 238 235 228 221 230 234 232 233 218 209 221 219 221 221 224 227 233 240 244 251 260 261 249 240 234 230 229 234 239 245 252 257 262
235 234 231 227 230 238 232 233 223 222 226 217 214 218 228 230 241 260 221 220 230 237 240 246 254 251 245 245 254 240 243 243 252 252 252 251 256 263
237 234 232 231 232 232 232 232 231 225 221 224 226 225 218 199 191 194 195 201 220 228 231 241 254 254 252 257 254 255 252 236 243 255 254 252 250 253
231 233 234 227 230 232 235 230 230 229 225 227 231 226 215 201 206 209 211 219 234 235 229 233 247 248 251 259 267 265 268 257 256 259 257 261 262 258
230 232 233 228 224 227 229 232 233 230 225 231 232 227 221 221 225 233 240 241 241 240 241 248 251 248 251 257 260 265 269 267 267 269 268 261 257 257
230 228 224 220 229 235 238 237 234 235 228 225 226 228 230 234 241 240 241 248 250 258 258 252 253 251 256 262 264 262 265 270 277 282 282 285 277 273
219 228 220 224 241 240 240 237 235 236 235 225 232 237 235 237 242 244 246 246 258 265 267 270 266 259 256 255 259 270 274 275 277 273 275 278 277 276
216 225 244 242 253 253 248 257 239 233 228 232 237 218 214 245 241 241 246 243 262 261 266 267 270 265 260 267 273 278 276 274 279 277 276 274 279 280
237 238 244 251 249 251 231 230 202 209 215 218 213 219 214 224 247 252 242 247 249 250 258 255 265 261 264 266 272 279 279 275 273 270 273 273 275 277
230 259 250 242 225 229 200 193 176 191 206 222 226 221 215 215 216 224 216 222 227 231 245 259 272 279 286 286 289 292 303 290 290 293 290 287 294 294
160 125 113 128 129 126 142 161 185 168 161 180 177 179 175 167 167 184 199 200 197 180 170 219 321 317 313 301 292 294 299 299 293 291 289 292 292 288
129 129 131 135 123 129 143 155 149 130 127 124 122 126 140 151 159 169 186 210 178 121 19 325 311 320 322 321 322 314 305 295 292 289 290 296 297 294